星链-6365 (STARLINK-6365 )

导读

STARLINK-6365是美国太空探索技术公司(SpaceX)星链互联网卫星星座中的一颗卫星,于2023年7月7日发射升空,星链计划旨在构建覆盖全球的低轨卫星互联网星座,为全球多地提供高速宽带互联网服务,该卫星在入轨后,承担着相应的通信传输服务任务。

基本信息
目录编号:
57237
目录名称:
STARLINK-6365
国际标识:
2023-094V
轨道中心:
EARTH
卫星名称:
星链-6365
卫星全名:
星链-6365 (STARLINK-6365 )
卫星状态:
在轨 (已飞行1163 天)
发射日期:
2023-07-07 UTC
国别 :
美国 (US)
星等 :
--
该卫星已列入 空间交会检测服务 Space Conjunction Data Service (SCDS) ,当前飞行风险评估等级: 无高风险
轨道信息
数据来源 国际轨道数据
星历时间: 2026-09-12T02:08:22+0800
1天前
查看轨道信息
半长轴: 6861.202km
偏心率: 0.0000976
轨道倾角: 43.004°
近地点辐角 250.167°
升交点赤经 59.756°
平近点角 109.908°
近地点: 482.395km
远地点: 483.735km
周期: 94.267分钟
每日圈数: 15.275749
详细信息
固有亮度:
5
最大亮度:
2.4
卫星平台:
Starlink v1.5
覆盖范围:
全球
运营商:
太空探索技术公司
运营商所在国:
美国
制造商(研发单位):
太空探索技术公司
制造商所在国:
美国
使用方式:
暂无
卫星简介
星链(Starlink)计划是由太空探索技术公司(SpaceX)提出的一个巨型低轨卫星互联网星座项目,计划在2019年至2024年间在太空搭建由约1.2万颗卫星组成的“星链”网络,其中1584颗将部署在地球上空550千米处的近地轨道,并从2020年开始工作。该卫星仍在工作。
2D轨道图
3D轨道图
轨道高度分析图
轨道倾角分析图
轨道综合分析图
查看轨道综合分析图
交会数据列表
事件ID 空间交会对象 最接近时刻(TCA) 交会距离 交会风险概率(CRP) 交会风险指数(CRI) 操作
CDM_260914-214105-723706-648321
2026-09-14T
21:41:20+0000
0.574 km
远距离
9.726346E-5 中风险 0.75
CDM_260914-200705-723706-648321
2026-09-14T
20:07:11+0000
0.846 km
远距离
3.001073E-5 中风险 0.65
CDM_260908-152005-682305-723721
2026-09-08T
15:20:13+0000
1.177 km
极远距离
8.617537E-6 低风险 0.54
CDM_260908-050805-682305-723721
2026-09-08T
05:08:14+0000
1.198 km
极远距离
8.10858E-6 低风险 0.53
CDM_260909-112605-723706-648322
2026-09-09T
11:26:23+0000
1.470 km
极远距离
4.58384E-6 低风险 0.48
CDM_260908-064205-682305-723721
2026-09-08T
06:42:23+0000
1.513 km
极远距离
3.737218E-6 低风险 0.46
CDM_260909-213805-723706-648321
2026-09-09T
21:38:23+0000
1.761 km
极远距离
2.648713E-6 低风险 0.43
CDM_260909-095205-723706-648322
2026-09-09T
09:52:14+0000
1.921 km
极远距离
2.095275E-6 低风险 0.41
CDM_260914-231505-723706-648321
2026-09-14T
23:15:30+0000
2.014 km
极远距离
1.862665E-6 低风险 0.4
CDM_260913-070305-723706-308521
2026-09-13T
07:03:26+0000
2.538 km
极远距离
1.560761E-6 低风险 0.39
与全量物体交会距离演化趋势
与全量物体交会风险概率演化趋势